#timestamp,LO_Frequency,Hit,StdDev 
1683666015.8,286046998.1,N
1683666035.6,286047000.6,N
1683666055.4,286047000.5,N
1683666075.3,286047000.7,N
1683666095.1,286046998.3,N
1683666115.8,286047000.3,N
1683666135.7,286047000.8,N
1683666155.5,286047000.7,N
1683666175.4,286046998.3,N
1683666195.2,286047001.2,N
1683666215.0,286046998.1,N
1683666215.9,286046998.1,N
1683666235.8,286046999.2,N
1683666285.6,286047000.9,E
1683666295.6,286046998.5,N
1683666315.4,286046998.6,P
1683666335.2,286046999.0,P
1683666355.1,286047001.2,Y
1683666356.0,286047001.2,P
1683666375.8,286047000.7,N
1683666395.7,286047000.3,N
1683666415.5,286047000.5,N
1683666435.3,286046999.9,N
1683666455.2,286047000.5,N
1683666475.9,286047000.1,N
1683666495.7,286047002.6,Y
1683666515.6,286047001.2,P
1683666535.4,286046998.1,P
1683666555.3,286047000.4,N
1683666575.1,286047002.6,N
1683666576.0,286047002.6,N
1683666595.8,286047000.1,N
1683666615.7,286047000.4,N
1683666635.5,286047000.6,N
1683666655.3,286047000.4,N
1683666675.2,286047000.5,N
1683666695.0,286046998.3,N
1683666695.9,286046998.3,N
1683666715.8,286046998.2,N
1683666735.6,286047001.2,N
1683666755.4,286047000.9,N
1683666775.3,286047001.0,N
1683666795.1,286046998.2,N
1683666796.0,286046998.2,N
1683666815.8,286047000.9,N
1683666835.7,286046998.5,N
1683666855.5,286047001.2,N
1683666875.3,286046999.9,N
1683666895.2,286047000.7,N
1683666915.0,286047001.3,N
1683666915.9,286047001.3,N
1683666935.8,286047004.0,N
1683666955.6,286047001.7,N
1683666975.4,286047004.4,N
1683666995.3,286047001.8,N
1683667015.1,286047001.5,N
1683667035.8,286047001.9,N
1683667055.7,286047001.6,N
1683667075.5,286047003.9,N
1683667095.4,286047004.3,N
1683667115.2,286047001.8,N
1683667135.0,286047003.9,N
1683667135.9,286047003.9,N
1683667155.8,286047004.0,N
1683667175.6,286047004.0,N
1683667195.5,286047004.1,N
1683667215.3,286047004.0,N
1683667235.1,286047003.7,N
1683667255.9,286047003.8,N
1683667275.7,286047003.2,N
1683667295.5,286047003.4,N
1683667315.4,286047003.2,N
1683667335.2,286047003.9,N
1683667355.1,286047004.2,N
1683667356.0,286047004.2,N
1683667375.8,286047003.9,N
1683667395.6,286047003.8,N
1683667415.5,286047003.2,N
1683667435.3,286047003.7,Y
1683667455.1,286047000.4,P
1683667475.9,286046999.7,N
1683667495.7,286047000.8,N
1683667515.6,286047000.5,N
1683667535.4,286046999.8,N
1683667555.2,286047002.7,N
1683667575.1,286047000.0,N
1683667576.0,286047000.0,N
1683667595.8,286046999.9,N
1683667615.6,286047000.2,N
1683667635.5,286046999.7,N
1683667655.3,286047000.0,N
1683667675.1,286047000.1,N
1683667695.9,286047002.6,N
1683667715.7,286047000.2,N
1683667735.6,286047000.2,N
1683667755.4,286047002.5,N
1683667775.2,286047002.5,N
1683667795.1,286047001.5,N
1683667796.0,286047001.5,N
1683667815.8,286047002.0,N
1683667835.6,286047002.7,N
1683667855.5,286047002.4,N
1683667875.3,286047002.6,N
1683667895.2,286047001.3,N
1683667915.9,286047001.8,N
1683667935.7,286047001.9,N
1683667955.6,286047004.3,Y
1683667975.4,286047002.0,P
1683667995.3,286046999.7,N
1683668015.1,286047002.2,N
1683668016.0,286047002.2,N
1683668035.8,286047002.3,N
1683668055.7,286047002.1,N
1683668075.5,286047001.9,N
1683668095.3,286047002.0,N
1683668115.2,286047001.3,N
1683668135.0,286047004.0,Y
1683668135.9,286047004.0,P
1683668155.8,286047002.2,N
1683668175.6,286047002.1,N
1683668195.4,286047002.7,Y
1683668215.3,286046998.5,P
1683668235.1,286046999.3,N
1683668255.9,286046998.1,N
1683668275.7,286046998.5,N
1683668295.5,286046999.3,N
1683668315.4,286046999.2,N
1683668335.2,286046999.2,N
1683668355.0,286046999.0,N
1683668355.9,286046999.0,N
1683668375.8,286046999.6,N
1683668395.6,286046999.3,N
1683668415.5,286046996.5,Y
1683668435.3,286046998.9,P
1683668455.1,286046998.7,P
1683668475.9,286046998.3,P
1683668495.7,286046998.3,Y
1683668515.5,286047000.0,P
1683668535.4,286047000.4,N
1683668555.2,286046999.9,N
1683668575.1,286047000.0,N
1683668576.0,286047000.0,N
1683668595.8,286047002.8,Y
1683668615.6,286047002.8,P
1683668635.5,286047000.3,N
1683668655.3,286046999.8,N
1683668675.2,286047000.1,N
1683668695.9,286047000.0,N
1683668715.7,286047002.7,N
1683668735.6,286046999.8,N
1683668755.4,286047002.5,N
1683668775.2,286047001.9,N
1683668795.1,286047002.7,N
1683668796.0,286047002.7,N
1683668815.8,286046999.9,N
1683668835.7,286047001.9,N
1683668855.5,286047002.2,N
1683668875.3,286047002.8,N
1683668895.2,286047002.3,N
1683668915.0,286047001.6,N
1683668915.9,286047001.6,N
1683668935.7,286047002.6,N
1683668985.6,286047001.9,E
1683668995.5,286047002.1,N
1683669015.4,286047001.0,P
1683669035.2,286047000.3,N
1683669055.0,286047000.3,N
1683669055.9,286047000.3,N
1683669075.8,286047000.5,N
1683669095.6,286047000.3,N
1683669115.4,286047000.3,N
1683669135.3,286046999.8,N
1683669155.1,286047002.3,Y
1683669175.9,286047002.6,P
1683669195.7,286046999.8,N
1683669215.5,286046999.8,N
1683669235.4,286047002.0,N
1683669255.2,286047002.0,N
1683669275.0,286047004.4,Y
1683669275.9,286047004.4,P
1683669295.8,286047002.4,N
1683669315.6,286047002.7,N
1683669335.5,286047000.4,N
1683669355.3,286046999.8,N
1683669375.1,286047000.3,N
1683669395.9,286047000.3,N
1683669415.7,286047000.6,N
1683669435.5,286047000.6,N
1683669455.4,286047000.5,N
1683669475.2,286047000.7,N
1683669495.1,286047000.9,N
1683669496.0,286047000.9,N
1683669515.8,286046999.9,N
1683669535.6,286046999.7,N
1683669555.5,286047001.1,N
1683669575.3,286047000.4,N
1683669595.1,286047002.8,N
